owner,sensor,date,latitude,longitude,vertical_datum,wind_speed,wind_to_direction,wind_speed_of_gust,qcFlag 
DISL,ioos:station:DISL:MBLA:1,2013-03-01T00:00:00Z,30.4367,-88.0117,14.2,8.63,323.1,-9999.0,'1111122,1111122,1111122' 
DISL,ioos:station:DISL:MBLA:1,2013-03-01T00:30:00Z,30.4367,-88.0117,14.2,8.42,315.8,-9999.0,'1111122,1111122,1111122' 
DISL,ioos:station:DISL:MBLA:1,2013-03-01T01:00:00Z,30.4367,-88.0117,14.2,8.86,318.0,-9999.0,'1111122,1111122,1111122' 
DISL,ioos:station:DISL:MBLA:1,2013-03-01T01:30:00Z,30.4367,-88.0117,14.2,8.77,313.4,-9999.0,'1111122,1111122,1111122' 
DISL,ioos:station:DISL:MBLA:1,2013-03-01T02:00:00Z,30.4367,-88.0117,14.2,8.26,312.4,-9999.0,'1111122,1111122,1111122' 
DISL,ioos:station:DISL:MBLA:1,2013-03-01T02:30:00Z,30.4367,-88.0117,14.2,8.14,305.3,-9999.0,'1111122,1111122,1111122' 
DISL,ioos:station:DISL:MBLA:1,2013-03-01T03:00:00Z,30.4367,-88.0117,14.2,8.46,309.7,-9999.0,'1111122,1111122,1111122' 
DISL,ioos:station:DISL:MBLA:1,2013-03-01T03:30:00Z,30.4367,-88.0117,14.2,8.66,313.6,-9999.0,'1111122,1111122,1111122' 
DISL,ioos:station:DISL:MBLA:1,2013-03-01T04:00:00Z,30.4367,-88.0117,14.2,8.48,311.2,-9999.0,'1111122,1111122,1111122' 
DISL,ioos:station:DISL:MBLA:1,2013-03-01T04:30:00Z,30.4367,-88.0117,14.2,7.54,298.6,-9999.0,'1111122,1111122,1111122' 
DISL,ioos:station:DISL:MBLA:1,2013-03-01T05:00:00Z,30.4367,-88.0117,14.2,10.5,318.9,-9999.0,'1111122,1111122,1111122' 
DISL,ioos:station:DISL:MBLA:1,2013-03-01T05:30:00Z,30.4367,-88.0117,14.2,9.11,334.7,-9999.0,'1111122,1111122,1111122' 
DISL,ioos:station:DISL:MBLA:1,2013-03-01T06:00:00Z,30.4367,-88.0117,14.2,8.74,341.2,-9999.0,'1111122,1111122,1111122' 
DISL,ioos:station:DISL:MBLA:1,2013-03-01T06:30:00Z,30.4367,-88.0117,14.2,7.37,332.6,-9999.0,'1111122,1111122,1111122' 
DISL,ioos:station:DISL:MBLA:1,2013-03-01T07:00:00Z,30.4367,-88.0117,14.2,7.53,337.7,-9999.0,'1111122,1111122,1111122' 
DISL,ioos:station:DISL:MBLA:1,2013-03-01T07:30:00Z,30.4367,-88.0117,14.2,7.34,334.2,-9999.0,'1111122,1111122,1111122' 
DISL,ioos:station:DISL:MBLA:1,2013-03-01T08:00:00Z,30.4367,-88.0117,14.2,6.63,338.3,-9999.0,'1111122,1111122,1111122' 
DISL,ioos:station:DISL:MBLA:1,2013-03-01T08:30:00Z,30.4367,-88.0117,14.2,6.5,336.1,-9999.0,'1111122,1111122,1111122' 
DISL,ioos:station:DISL:MBLA:1,2013-03-01T09:00:00Z,30.4367,-88.0117,14.2,6.47,335.1,-9999.0,'1111122,1111122,1111122' 
DISL,ioos:station:DISL:MBLA:1,2013-03-01T09:30:00Z,30.4367,-88.0117,14.2,6.56,341.7,-9999.0,'1111122,1111122,1111122' 
DISL,ioos:station:DISL:MBLA:1,2013-03-01T10:00:00Z,30.4367,-88.0117,14.2,5.41,357.8,-9999.0,'1111122,1111122,1111122' 
DISL,ioos:station:DISL:MBLA:1,2013-03-01T10:30:00Z,30.4367,-88.0117,14.2,4.88,3.908,-9999.0,'1111122,1111122,1111122' 
DISL,ioos:station:DISL:MBLA:1,2013-03-01T11:00:00Z,30.4367,-88.0117,14.2,5.56,13.11,-9999.0,'1111122,1111122,1111122' 
DISL,ioos:station:DISL:MBLA:1,2013-03-01T11:30:00Z,30.4367,-88.0117,14.2,4.12,13.17,-9999.0,'1111122,1111122,1111122' 
DISL,ioos:station:DISL:MBLA:1,2013-03-01T12:00:00Z,30.4367,-88.0117,14.2,4.9,13.31,-9999.0,'1111122,1111122,1111122' 
DISL,ioos:station:DISL:MBLA:1,2013-03-01T12:30:00Z,30.4367,-88.0117,14.2,4.68,3.963,-9999.0,'1111122,1111122,1111122' 
DISL,ioos:station:DISL:MBLA:1,2013-03-01T13:00:00Z,30.4367,-88.0117,14.2,4.05,346.4,-9999.0,'1111122,1111122,1111122' 
DISL,ioos:station:DISL:MBLA:1,2013-03-01T13:30:00Z,30.4367,-88.0117,14.2,3.35,353.4,-9999.0,'1111122,1111122,1111122' 
DISL,ioos:station:DISL:MBLA:1,2013-03-01T14:00:00Z,30.4367,-88.0117,14.2,3.25,340.8,-9999.0,'1111122,1111122,1111122' 
DISL,ioos:station:DISL:MBLA:1,2013-03-01T14:30:00Z,30.4367,-88.0117,14.2,3.1,348.1,-9999.0,'1111122,1111122,1111122' 
DISL,ioos:station:DISL:MBLA:1,2013-03-01T15:00:00Z,30.4367,-88.0117,14.2,2.72,351.8,-9999.0,'1111122,1111122,1111122' 
DISL,ioos:station:DISL:MBLA:1,2013-03-01T15:30:00Z,30.4367,-88.0117,14.2,2.25,351.5,-9999.0,'1111122,1111122,1111122' 
DISL,ioos:station:DISL:MBLA:1,2013-03-01T16:00:00Z,30.4367,-88.0117,14.2,1.37,1.715,-9999.0,'1111122,1111122,1111122' 
DISL,ioos:station:DISL:MBLA:1,2013-03-01T16:30:00Z,30.4367,-88.0117,14.2,1.95,345.2,-9999.0,'1111122,1111122,1111122' 
DISL,ioos:station:DISL:MBLA:1,2013-03-01T17:00:00Z,30.4367,-88.0117,14.2,2.12,25.21,-9999.0,'1111122,1111122,1111122' 
DISL,ioos:station:DISL:MBLA:1,2013-03-01T17:30:00Z,30.4367,-88.0117,14.2,1.24,58.15,-9999.0,'1111122,1111122,1111122' 
DISL,ioos:station:DISL:MBLA:1,2013-03-01T18:00:00Z,30.4367,-88.0117,14.2,2.13,120.7,-9999.0,'1111122,1111122,1111122' 
DISL,ioos:station:DISL:MBLA:1,2013-03-01T18:30:00Z,30.4367,-88.0117,14.2,3.08,148.2,-9999.0,'1111122,1111122,1111122' 
DISL,ioos:station:DISL:MBLA:1,2013-03-01T19:00:00Z,30.4367,-88.0117,14.2,4.42,186.7,-9999.0,'1111122,1111122,1111122' 
DISL,ioos:station:DISL:MBLA:1,2013-03-01T19:30:00Z,30.4367,-88.0117,14.2,5.62,169.1,-9999.0,'1111122,1111122,1111122' 
DISL,ioos:station:DISL:MBLA:1,2013-03-01T20:00:00Z,30.4367,-88.0117,14.2,5.82,180.1,-9999.0,'1111122,1111122,1111122' 
DISL,ioos:station:DISL:MBLA:1,2013-03-01T20:30:00Z,30.4367,-88.0117,14.2,6.7,183.8,-9999.0,'1111122,1111122,1111122' 
DISL,ioos:station:DISL:MBLA:1,2013-03-01T21:00:00Z,30.4367,-88.0117,14.2,6.44,188.8,-9999.0,'1111122,1111122,1111122' 
DISL,ioos:station:DISL:MBLA:1,2013-03-01T21:30:00Z,30.4367,-88.0117,14.2,6.68,191.9,-9999.0,'1111122,1111122,1111122' 
DISL,ioos:station:DISL:MBLA:1,2013-03-01T22:00:00Z,30.4367,-88.0117,14.2,6.51,215.6,-9999.0,'1111122,1111122,1111122' 
DISL,ioos:station:DISL:MBLA:1,2013-03-01T22:30:00Z,30.4367,-88.0117,14.2,8.01,229.7,-9999.0,'1111122,1111122,1111122' 
DISL,ioos:station:DISL:MBLA:1,2013-03-01T23:00:00Z,30.4367,-88.0117,14.2,6.78,226.8,-9999.0,'1111122,1111122,1111122' 
DISL,ioos:station:DISL:MBLA:1,2013-03-01T23:30:00Z,30.4367,-88.0117,14.2,5.64,250.5,-9999.0,'1111122,1111122,1111122' 
DISL,ioos:station:DISL:MBLA:1,2013-03-02T00:00:00Z,30.4367,-88.0117,14.2,6.53,320.7,-9999.0,'1111122,1111122,1111122' 
DISL,ioos:station:DISL:MBLA:1,2013-03-02T00:30:00Z,30.4367,-88.0117,14.2,8.32,318.9,-9999.0,'1111122,1111122,1111122' 
DISL,ioos:station:DISL:MBLA:1,2013-03-02T01:00:00Z,30.4367,-88.0117,14.2,7.74,312.1,-9999.0,'1111122,1111122,1111122' 
DISL,ioos:station:DISL:MBLA:1,2013-03-02T01:30:00Z,30.4367,-88.0117,14.2,8.5,322.0,-9999.0,'1111122,1111122,1111122' 
DISL,ioos:station:DISL:MBLA:1,2013-03-02T02:00:00Z,30.4367,-88.0117,14.2,10.05,329.0,-9999.0,'1111122,1111122,1111122' 
DISL,ioos:station:DISL:MBLA:1,2013-03-02T02:30:00Z,30.4367,-88.0117,14.2,11.01,329.5,-9999.0,'1111122,1111122,1111122' 
DISL,ioos:station:DISL:MBLA:1,2013-03-02T03:00:00Z,30.4367,-88.0117,14.2,11.85,333.4,-9999.0,'1111122,1111122,1111122' 
DISL,ioos:station:DISL:MBLA:1,2013-03-02T03:30:00Z,30.4367,-88.0117,14.2,11.58,333.6,-9999.0,'1111122,1111122,1111122' 
DISL,ioos:station:DISL:MBLA:1,2013-03-02T04:00:00Z,30.4367,-88.0117,14.2,12.79,332.1,-9999.0,'1111122,1111122,1111122' 
DISL,ioos:station:DISL:MBLA:1,2013-03-02T04:30:00Z,30.4367,-88.0117,14.2,12.36,339.9,-9999.0,'1111122,1111122,1111122' 
DISL,ioos:station:DISL:MBLA:1,2013-03-02T05:00:00Z,30.4367,-88.0117,14.2,9.48,337.1,-9999.0,'1111122,1111122,1111122' 
DISL,ioos:station:DISL:MBLA:1,2013-03-02T05:30:00Z,30.4367,-88.0117,14.2,9.2,342.5,-9999.0,'1111122,1111122,1111122' 
DISL,ioos:station:DISL:MBLA:1,2013-03-02T06:00:00Z,30.4367,-88.0117,14.2,8.86,340.3,-9999.0,'1111122,1111122,1111122' 
DISL,ioos:station:DISL:MBLA:1,2013-03-02T06:30:00Z,30.4367,-88.0117,14.2,8.7,340.0,-9999.0,'1111122,1111122,1111122' 
DISL,ioos:station:DISL:MBLA:1,2013-03-02T07:00:00Z,30.4367,-88.0117,14.2,7.02,337.4,-9999.0,'1111122,1111122,1111122' 
DISL,ioos:station:DISL:MBLA:1,2013-03-02T07:30:00Z,30.4367,-88.0117,14.2,9.32,330.3,-9999.0,'1111122,1111122,1111122' 
DISL,ioos:station:DISL:MBLA:1,2013-03-02T08:00:00Z,30.4367,-88.0117,14.2,9.13,321.4,-9999.0,'1111122,1111122,1111122' 
DISL,ioos:station:DISL:MBLA:1,2013-03-02T08:30:00Z,30.4367,-88.0117,14.2,9.08,322.6,-9999.0,'1111122,1111122,1111122' 
DISL,ioos:station:DISL:MBLA:1,2013-03-02T09:00:00Z,30.4367,-88.0117,14.2,8.31,318.2,-9999.0,'1111122,1111122,1111122' 
DISL,ioos:station:DISL:MBLA:1,2013-03-02T09:30:00Z,30.4367,-88.0117,14.2,9.04,325.7,-9999.0,'1111122,1111122,1111122' 
DISL,ioos:station:DISL:MBLA:1,2013-03-02T10:00:00Z,30.4367,-88.0117,14.2,8.2,331.4,-9999.0,'1111122,1111122,1111122' 
DISL,ioos:station:DISL:MBLA:1,2013-03-02T10:30:00Z,30.4367,-88.0117,14.2,8.94,329.8,-9999.0,'1111122,1111122,1111122' 
DISL,ioos:station:DISL:MBLA:1,2013-03-02T11:00:00Z,30.4367,-88.0117,14.2,8.42,333.5,-9999.0,'1111122,1111122,1111122' 
DISL,ioos:station:DISL:MBLA:1,2013-03-02T11:30:00Z,30.4367,-88.0117,14.2,8.95,329.9,-9999.0,'1111122,1111122,1111122' 
DISL,ioos:station:DISL:MBLA:1,2013-03-02T12:00:00Z,30.4367,-88.0117,14.2,8.31,321.4,-9999.0,'1111122,1111122,1111122' 
DISL,ioos:station:DISL:MBLA:1,2013-03-02T12:30:00Z,30.4367,-88.0117,14.2,8.38,319.0,-9999.0,'1111122,1111122,1111122' 
DISL,ioos:station:DISL:MBLA:1,2013-03-02T13:00:00Z,30.4367,-88.0117,14.2,9.67,321.4,-9999.0,'1111122,1111122,1111122' 
DISL,ioos:station:DISL:MBLA:1,2013-03-02T13:30:00Z,30.4367,-88.0117,14.2,8.47,326.1,-9999.0,'1111122,1111122,1111122' 
DISL,ioos:station:DISL:MBLA:1,2013-03-02T14:00:00Z,30.4367,-88.0117,14.2,7.62,331.0,-9999.0,'1111122,1111122,1111122' 
DISL,ioos:station:DISL:MBLA:1,2013-03-02T14:30:00Z,30.4367,-88.0117,14.2,6.55,335.4,-9999.0,'1111122,1111122,1111122' 
DISL,ioos:station:DISL:MBLA:1,2013-03-02T15:00:00Z,30.4367,-88.0117,14.2,6.93,337.5,-9999.0,'1111122,1111122,1111122' 
DISL,ioos:station:DISL:MBLA:1,2013-03-02T15:30:00Z,30.4367,-88.0117,14.2,6.67,340.7,-9999.0,'1111122,1111122,1111122' 
DISL,ioos:station:DISL:MBLA:1,2013-03-02T16:00:00Z,30.4367,-88.0117,14.2,6.25,344.7,-9999.0,'1111122,1111122,1111122' 
DISL,ioos:station:DISL:MBLA:1,2013-03-02T16:30:00Z,30.4367,-88.0117,14.2,7.08,337.4,-9999.0,'1111122,1111122,1111122' 
DISL,ioos:station:DISL:MBLA:1,2013-03-02T17:00:00Z,30.4367,-88.0117,14.2,7.46,333.3,-9999.0,'1111122,1111122,1111122' 
DISL,ioos:station:DISL:MBLA:1,2013-03-02T17:30:00Z,30.4367,-88.0117,14.2,7.95,328.0,-9999.0,'1111122,1111122,1111122' 
DISL,ioos:station:DISL:MBLA:1,2013-03-02T18:00:00Z,30.4367,-88.0117,14.2,9.28,314.3,-9999.0,'1111122,1111122,1111122' 
DISL,ioos:station:DISL:MBLA:1,2013-03-02T18:30:00Z,30.4367,-88.0117,14.2,10.68,311.5,-9999.0,'1111122,1111122,1111122' 
DISL,ioos:station:DISL:MBLA:1,2013-03-02T19:00:00Z,30.4367,-88.0117,14.2,11.81,313.8,-9999.0,'1111122,1111122,1111122' 
DISL,ioos:station:DISL:MBLA:1,2013-03-02T19:30:00Z,30.4367,-88.0117,14.2,10.77,314.3,-9999.0,'1111122,1111122,1111122' 
DISL,ioos:station:DISL:MBLA:1,2013-03-02T20:00:00Z,30.4367,-88.0117,14.2,10.96,313.9,-9999.0,'1111122,1111122,1111122' 
DISL,ioos:station:DISL:MBLA:1,2013-03-02T20:30:00Z,30.4367,-88.0117,14.2,9.69,312.3,-9999.0,'1111122,1111122,1111122' 
DISL,ioos:station:DISL:MBLA:1,2013-03-02T21:00:00Z,30.4367,-88.0117,14.2,10.31,320.2,-9999.0,'1111122,1111122,1111122' 
DISL,ioos:station:DISL:MBLA:1,2013-03-02T21:30:00Z,30.4367,-88.0117,14.2,10.53,316.6,-9999.0,'1111122,1111122,1111122' 
DISL,ioos:station:DISL:MBLA:1,2013-03-02T22:00:00Z,30.4367,-88.0117,14.2,10.47,317.3,-9999.0,'1111122,1111122,1111122' 
DISL,ioos:station:DISL:MBLA:1,2013-03-02T22:30:00Z,30.4367,-88.0117,14.2,11.05,324.4,-9999.0,'1111122,1111122,1111122' 
DISL,ioos:station:DISL:MBLA:1,2013-03-02T23:00:00Z,30.4367,-88.0117,14.2,10.37,327.3,-9999.0,'1111122,1111122,1111122' 
DISL,ioos:station:DISL:MBLA:1,2013-03-02T23:30:00Z,30.4367,-88.0117,14.2,10.81,329.9,-9999.0,'1111122,1111122,1111122' 
DISL,ioos:station:DISL:MBLA:1,2013-03-03T00:00:00Z,30.4367,-88.0117,14.2,9.88,325.6,-9999.0,'1111122,1111122,1111122' 
DISL,ioos:station:DISL:MBLA:1,2013-03-03T00:30:00Z,30.4367,-88.0117,14.2,10.17,326.6,-9999.0,'1111122,1111122,1111122' 
DISL,ioos:station:DISL:MBLA:1,2013-03-03T01:00:00Z,30.4367,-88.0117,14.2,11.36,325.8,-9999.0,'1111122,1111122,1111122' 
DISL,ioos:station:DISL:MBLA:1,2013-03-03T01:30:00Z,30.4367,-88.0117,14.2,10.99,331.6,-9999.0,'1111122,1111122,1111122' 
DISL,ioos:station:DISL:MBLA:1,2013-03-03T02:00:00Z,30.4367,-88.0117,14.2,10.16,338.4,-9999.0,'1111122,1111122,1111122' 
DISL,ioos:station:DISL:MBLA:1,2013-03-03T02:30:00Z,30.4367,-88.0117,14.2,12.15,326.8,-9999.0,'1111122,1111122,1111122' 
DISL,ioos:station:DISL:MBLA:1,2013-03-03T03:00:00Z,30.4367,-88.0117,14.2,10.55,335.1,-9999.0,'1111122,1111122,1111122' 
DISL,ioos:station:DISL:MBLA:1,2013-03-03T03:30:00Z,30.4367,-88.0117,14.2,10.74,321.3,-9999.0,'1111122,1111122,1111122' 
DISL,ioos:station:DISL:MBLA:1,2013-03-03T04:00:00Z,30.4367,-88.0117,14.2,10.52,329.3,-9999.0,'1111122,1111122,1111122' 
DISL,ioos:station:DISL:MBLA:1,2013-03-03T04:30:00Z,30.4367,-88.0117,14.2,12.1,310.5,-9999.0,'1111122,1111122,1111122' 
DISL,ioos:station:DISL:MBLA:1,2013-03-03T05:00:00Z,30.4367,-88.0117,14.2,10.9,311.8,-9999.0,'1111122,1111122,1111122' 
DISL,ioos:station:DISL:MBLA:1,2013-03-03T05:30:00Z,30.4367,-88.0117,14.2,11.36,312.8,-9999.0,'1111122,1111122,1111122' 
DISL,ioos:station:DISL:MBLA:1,2013-03-03T06:00:00Z,30.4367,-88.0117,14.2,9.88,316.1,-9999.0,'1111122,1111122,1111122' 
DISL,ioos:station:DISL:MBLA:1,2013-03-03T06:30:00Z,30.4367,-88.0117,14.2,9.25,314.7,-9999.0,'1111122,1111122,1111122' 
DISL,ioos:station:DISL:MBLA:1,2013-03-03T07:00:00Z,30.4367,-88.0117,14.2,10.26,324.7,-9999.0,'1111122,1111122,1111122' 
DISL,ioos:station:DISL:MBLA:1,2013-03-03T07:30:00Z,30.4367,-88.0117,14.2,10.22,326.3,-9999.0,'1111122,1111122,1111122' 
DISL,ioos:station:DISL:MBLA:1,2013-03-03T08:00:00Z,30.4367,-88.0117,14.2,10.04,334.6,-9999.0,'1111122,1111122,1111122' 
DISL,ioos:station:DISL:MBLA:1,2013-03-03T08:30:00Z,30.4367,-88.0117,14.2,8.86,336.1,-9999.0,'1111122,1111122,1111122' 
DISL,ioos:station:DISL:MBLA:1,2013-03-03T09:00:00Z,30.4367,-88.0117,14.2,8.41,333.6,-9999.0,'1111122,1111122,1111122' 
DISL,ioos:station:DISL:MBLA:1,2013-03-03T09:30:00Z,30.4367,-88.0117,14.2,8.69,338.7,-9999.0,'1111122,1111122,1111122' 
DISL,ioos:station:DISL:MBLA:1,2013-03-03T10:00:00Z,30.4367,-88.0117,14.2,6.96,335.5,-9999.0,'1111122,1111122,1111122' 
DISL,ioos:station:DISL:MBLA:1,2013-03-03T10:30:00Z,30.4367,-88.0117,14.2,7.95,324.3,-9999.0,'1111122,1111122,1111122' 
DISL,ioos:station:DISL:MBLA:1,2013-03-03T11:00:00Z,30.4367,-88.0117,14.2,8.23,319.3,-9999.0,'1111122,1111122,1111122' 
DISL,ioos:station:DISL:MBLA:1,2013-03-03T11:30:00Z,30.4367,-88.0117,14.2,9.32,321.8,-9999.0,'1111122,1111122,1111122' 
DISL,ioos:station:DISL:MBLA:1,2013-03-03T12:00:00Z,30.4367,-88.0117,14.2,8.75,324.0,-9999.0,'1111122,1111122,1111122' 
DISL,ioos:station:DISL:MBLA:1,2013-03-03T12:30:00Z,30.4367,-88.0117,14.2,9.39,324.1,-9999.0,'1111122,1111122,1111122' 
DISL,ioos:station:DISL:MBLA:1,2013-03-03T13:00:00Z,30.4367,-88.0117,14.2,9.94,328.9,-9999.0,'1111122,1111122,1111122' 
DISL,ioos:station:DISL:MBLA:1,2013-03-03T13:30:00Z,30.4367,-88.0117,14.2,8.56,331.3,-9999.0,'1111122,1111122,1111122' 
DISL,ioos:station:DISL:MBLA:1,2013-03-03T14:00:00Z,30.4367,-88.0117,14.2,8.47,334.0,-9999.0,'1111122,1111122,1111122' 
DISL,ioos:station:DISL:MBLA:1,2013-03-03T14:30:00Z,30.4367,-88.0117,14.2,8.75,331.2,-9999.0,'1111122,1111122,1111122' 
DISL,ioos:station:DISL:MBLA:1,2013-03-03T15:00:00Z,30.4367,-88.0117,14.2,8.44,333.5,-9999.0,'1111122,1111122,1111122' 
DISL,ioos:station:DISL:MBLA:1,2013-03-03T15:30:00Z,30.4367,-88.0117,14.2,7.42,340.4,-9999.0,'1111122,1111122,1111122' 
DISL,ioos:station:DISL:MBLA:1,2013-03-03T16:00:00Z,30.4367,-88.0117,14.2,6.96,332.1,-9999.0,'1111122,1111122,1111122' 
DISL,ioos:station:DISL:MBLA:1,2013-03-03T16:30:00Z,30.4367,-88.0117,14.2,5.99,328.2,-9999.0,'1111122,1111122,1111122' 
DISL,ioos:station:DISL:MBLA:1,2013-03-03T17:00:00Z,30.4367,-88.0117,14.2,5.46,343.8,-9999.0,'1111122,1111122,1111122' 
DISL,ioos:station:DISL:MBLA:1,2013-03-03T17:30:00Z,30.4367,-88.0117,14.2,4.72,335.0,-9999.0,'1111122,1111122,1111122' 
DISL,ioos:station:DISL:MBLA:1,2013-03-03T18:00:00Z,30.4367,-88.0117,14.2,3.28,26.44,-9999.0,'1111122,1111122,1111122' 
DISL,ioos:station:DISL:MBLA:1,2013-03-03T18:30:00Z,30.4367,-88.0117,14.2,2.37,24.17,-9999.0,'1111122,1111122,1111122' 
DISL,ioos:station:DISL:MBLA:1,2013-03-03T19:00:00Z,30.4367,-88.0117,14.2,3.54,41.28,-9999.0,'1111122,1111122,1111122' 
DISL,ioos:station:DISL:MBLA:1,2013-03-03T19:30:00Z,30.4367,-88.0117,14.2,3.48,54.11,-9999.0,'1111122,1111122,1111122' 
DISL,ioos:station:DISL:MBLA:1,2013-03-03T20:00:00Z,30.4367,-88.0117,14.2,3.01,65.23,-9999.0,'1111122,1111122,1111122' 
DISL,ioos:station:DISL:MBLA:1,2013-03-03T20:30:00Z,30.4367,-88.0117,14.2,1.83,119.3,-9999.0,'1111122,1111122,1111122' 
DISL,ioos:station:DISL:MBLA:1,2013-03-03T21:00:00Z,30.4367,-88.0117,14.2,3.46,178.2,-9999.0,'1111122,1111122,1111122' 
DISL,ioos:station:DISL:MBLA:1,2013-03-03T21:30:00Z,30.4367,-88.0117,14.2,3.9,173.2,-9999.0,'1111122,1111122,1111122' 
DISL,ioos:station:DISL:MBLA:1,2013-03-03T22:00:00Z,30.4367,-88.0117,14.2,4.51,169.9,-9999.0,'1111122,1111122,1111122' 
DISL,ioos:station:DISL:MBLA:1,2013-03-03T22:30:00Z,30.4367,-88.0117,14.2,4.86,172.6,-9999.0,'1111122,1111122,1111122' 
DISL,ioos:station:DISL:MBLA:1,2013-03-03T23:00:00Z,30.4367,-88.0117,14.2,5.01,170.2,-9999.0,'1111122,1111122,1111122' 
DISL,ioos:station:DISL:MBLA:1,2013-03-03T23:30:00Z,30.4367,-88.0117,14.2,2.95,182.0,-9999.0,'1111122,1111122,1111122' 
DISL,ioos:station:DISL:MBLA:1,2013-03-04T00:00:00Z,30.4367,-88.0117,14.2,5.92,228.9,-9999.0,'1111122,1111122,1111122' 
DISL,ioos:station:DISL:MBLA:1,2013-03-04T00:30:00Z,30.4367,-88.0117,14.2,6.69,232.6,-9999.0,'1111122,1111122,1111122' 
DISL,ioos:station:DISL:MBLA:1,2013-03-04T01:00:00Z,30.4367,-88.0117,14.2,6.82,248.3,-9999.0,'1111122,1111122,1111122' 
DISL,ioos:station:DISL:MBLA:1,2013-03-04T01:30:00Z,30.4367,-88.0117,14.2,6.93,253.7,-9999.0,'1111122,1111122,1111122' 
DISL,ioos:station:DISL:MBLA:1,2013-03-04T02:00:00Z,30.4367,-88.0117,14.2,6.75,258.0,-9999.0,'1111122,1111122,1111122' 
DISL,ioos:station:DISL:MBLA:1,2013-03-04T02:30:00Z,30.4367,-88.0117,14.2,5.9,255.2,-9999.0,'1111122,1111122,1111122' 
DISL,ioos:station:DISL:MBLA:1,2013-03-04T03:00:00Z,30.4367,-88.0117,14.2,4.95,256.2,-9999.0,'1111122,1111122,1111122' 
DISL,ioos:station:DISL:MBLA:1,2013-03-04T03:30:00Z,30.4367,-88.0117,14.2,3.2,252.2,-9999.0,'1111122,1111122,1111122' 
DISL,ioos:station:DISL:MBLA:1,2013-03-04T04:00:00Z,30.4367,-88.0117,14.2,3.33,235.6,-9999.0,'1111122,1111122,1111122' 
DISL,ioos:station:DISL:MBLA:1,2013-03-04T04:30:00Z,30.4367,-88.0117,14.2,2.62,247.4,-9999.0,'1111122,1111122,1111122' 
DISL,ioos:station:DISL:MBLA:1,2013-03-04T05:00:00Z,30.4367,-88.0117,14.2,2.84,230.8,-9999.0,'1111122,1111122,1111122' 
DISL,ioos:station:DISL:MBLA:1,2013-03-04T05:30:00Z,30.4367,-88.0117,14.2,3.86,255.5,-9999.0,'1111122,1111122,1111122' 
DISL,ioos:station:DISL:MBLA:1,2013-03-04T06:00:00Z,30.4367,-88.0117,14.2,4.15,269.8,-9999.0,'1111122,1111122,1111122' 
DISL,ioos:station:DISL:MBLA:1,2013-03-04T06:30:00Z,30.4367,-88.0117,14.2,4.01,278.8,-9999.0,'1111122,1111122,1111122' 
DISL,ioos:station:DISL:MBLA:1,2013-03-04T07:00:00Z,30.4367,-88.0117,14.2,3.11,285.1,-9999.0,'1111122,1111122,1111122' 
DISL,ioos:station:DISL:MBLA:1,2013-03-04T07:30:00Z,30.4367,-88.0117,14.2,1.85,302.8,-9999.0,'1111122,1111122,1111122' 
DISL,ioos:station:DISL:MBLA:1,2013-03-04T08:00:00Z,30.4367,-88.0117,14.2,1.46,318.6,-9999.0,'1111122,1111122,1111122' 
DISL,ioos:station:DISL:MBLA:1,2013-03-04T08:30:00Z,30.4367,-88.0117,14.2,1.0,314.5,-9999.0,'1111122,1111122,1111122' 
DISL,ioos:station:DISL:MBLA:1,2013-03-04T09:00:00Z,30.4367,-88.0117,14.2,0.09,221.7,-9999.0,'1111122,1111122,1111122' 
DISL,ioos:station:DISL:MBLA:1,2013-03-04T09:30:00Z,30.4367,-88.0117,14.2,1.13,78.61,-9999.0,'1111122,1111122,1111122' 
DISL,ioos:station:DISL:MBLA:1,2013-03-04T10:00:00Z,30.4367,-88.0117,14.2,2.75,87.5,-9999.0,'1111122,1111122,1111122' 
DISL,ioos:station:DISL:MBLA:1,2013-03-04T10:30:00Z,30.4367,-88.0117,14.2,2.02,84.7,-9999.0,'1111122,1111122,1111122' 
DISL,ioos:station:DISL:MBLA:1,2013-03-04T11:00:00Z,30.4367,-88.0117,14.2,1.99,95.3,-9999.0,'1111122,1111122,1111122' 
DISL,ioos:station:DISL:MBLA:1,2013-03-04T11:30:00Z,30.4367,-88.0117,14.2,1.89,112.6,-9999.0,'1111122,1111122,1111122' 
DISL,ioos:station:DISL:MBLA:1,2013-03-04T12:00:00Z,30.4367,-88.0117,14.2,2.56,106.9,-9999.0,'1111122,1111122,1111122' 
DISL,ioos:station:DISL:MBLA:1,2013-03-04T12:30:00Z,30.4367,-88.0117,14.2,2.61,107.2,-9999.0,'1111122,1111122,1111122' 
DISL,ioos:station:DISL:MBLA:1,2013-03-04T13:00:00Z,30.4367,-88.0117,14.2,2.72,107.9,-9999.0,'1111122,1111122,1111122' 
DISL,ioos:station:DISL:MBLA:1,2013-03-04T13:30:00Z,30.4367,-88.0117,14.2,3.11,99.9,-9999.0,'1111122,1111122,1111122' 
DISL,ioos:station:DISL:MBLA:1,2013-03-04T14:00:00Z,30.4367,-88.0117,14.2,3.5,102.5,-9999.0,'1111122,1111122,1111122' 
DISL,ioos:station:DISL:MBLA:1,2013-03-04T14:30:00Z,30.4367,-88.0117,14.2,4.38,105.5,-9999.0,'1111122,1111122,1111122' 
DISL,ioos:station:DISL:MBLA:1,2013-03-04T15:00:00Z,30.4367,-88.0117,14.2,5.35,114.1,-9999.0,'1111122,1111122,1111122' 
DISL,ioos:station:DISL:MBLA:1,2013-03-04T15:30:00Z,30.4367,-88.0117,14.2,6.4,120.4,-9999.0,'1111122,1111122,1111122' 
DISL,ioos:station:DISL:MBLA:1,2013-03-04T16:00:00Z,30.4367,-88.0117,14.2,6.6,121.3,-9999.0,'1111122,1111122,1111122' 
DISL,ioos:station:DISL:MBLA:1,2013-03-04T16:30:00Z,30.4367,-88.0117,14.2,6.4,129.4,-9999.0,'1111122,1111122,1111122' 
DISL,ioos:station:DISL:MBLA:1,2013-03-04T17:00:00Z,30.4367,-88.0117,14.2,6.09,137.1,-9999.0,'1111122,1111122,1111122' 
DISL,ioos:station:DISL:MBLA:1,2013-03-04T17:30:00Z,30.4367,-88.0117,14.2,5.38,137.6,-9999.0,'1111122,1111122,1111122' 
DISL,ioos:station:DISL:MBLA:1,2013-03-04T18:00:00Z,30.4367,-88.0117,14.2,5.59,135.9,-9999.0,'1111122,1111122,1111122' 
DISL,ioos:station:DISL:MBLA:1,2013-03-04T18:30:00Z,30.4367,-88.0117,14.2,5.39,137.1,-9999.0,'1111122,1111122,1111122' 
DISL,ioos:station:DISL:MBLA:1,2013-03-04T19:00:00Z,30.4367,-88.0117,14.2,5.72,141.9,-9999.0,'1111122,1111122,1111122' 
DISL,ioos:station:DISL:MBLA:1,2013-03-04T19:30:00Z,30.4367,-88.0117,14.2,7.35,140.4,-9999.0,'1111122,1111122,1111122' 
DISL,ioos:station:DISL:MBLA:1,2013-03-04T20:00:00Z,30.4367,-88.0117,14.2,7.15,136.5,-9999.0,'1111122,1111122,1111122' 
DISL,ioos:station:DISL:MBLA:1,2013-03-04T20:30:00Z,30.4367,-88.0117,14.2,7.52,136.7,-9999.0,'1111122,1111122,1111122' 
DISL,ioos:station:DISL:MBLA:1,2013-03-04T21:00:00Z,30.4367,-88.0117,14.2,7.64,135.4,-9999.0,'1111122,1111122,1111122' 
DISL,ioos:station:DISL:MBLA:1,2013-03-04T21:30:00Z,30.4367,-88.0117,14.2,8.12,136.3,-9999.0,'1111122,1111122,1111122' 
DISL,ioos:station:DISL:MBLA:1,2013-03-04T22:00:00Z,30.4367,-88.0117,14.2,8.61,137.8,-9999.0,'1111122,1111122,1111122' 
DISL,ioos:station:DISL:MBLA:1,2013-03-04T22:30:00Z,30.4367,-88.0117,14.2,8.34,134.3,-9999.0,'1111122,1111122,1111122' 
DISL,ioos:station:DISL:MBLA:1,2013-03-04T23:00:00Z,30.4367,-88.0117,14.2,8.2,135.4,-9999.0,'1111122,1111122,1111122' 
DISL,ioos:station:DISL:MBLA:1,2013-03-04T23:30:00Z,30.4367,-88.0117,14.2,6.13,147.7,-9999.0,'1111122,1111122,1111122' 
DISL,ioos:station:DISL:MBLA:1,2013-03-05T00:00:00Z,30.4367,-88.0117,14.2,7.57,145.3,-9999.0,'1111122,1111122,1111122' 
DISL,ioos:station:DISL:MBLA:1,2013-03-05T00:30:00Z,30.4367,-88.0117,14.2,6.43,146.5,-9999.0,'1111122,1111122,1111122' 
DISL,ioos:station:DISL:MBLA:1,2013-03-05T01:00:00Z,30.4367,-88.0117,14.2,5.66,148.8,-9999.0,'1111122,1111122,1111122' 
DISL,ioos:station:DISL:MBLA:1,2013-03-05T01:30:00Z,30.4367,-88.0117,14.2,6.35,141.8,-9999.0,'1111122,1111122,1111122' 
DISL,ioos:station:DISL:MBLA:1,2013-03-05T02:00:00Z,30.4367,-88.0117,14.2,6.65,143.5,-9999.0,'1111122,1111122,1111122' 
DISL,ioos:station:DISL:MBLA:1,2013-03-05T02:30:00Z,30.4367,-88.0117,14.2,6.13,140.5,-9999.0,'1111122,1111122,1111122' 
DISL,ioos:station:DISL:MBLA:1,2013-03-05T03:00:00Z,30.4367,-88.0117,14.2,6.19,138.4,-9999.0,'1111122,1111122,1111122' 
DISL,ioos:station:DISL:MBLA:1,2013-03-05T03:30:00Z,30.4367,-88.0117,14.2,6.38,142.6,-9999.0,'1111122,1111122,1111122' 